{"data":{"norad_id":56381,"intl_designator":"2023-061H","name":"STARLINK-6159","alt_names":[],"object_type":"PAYLOAD","status":"ACTIVE","operator":null,"country":"US","launch_date":"2023-05-04","launch_site_code":"AFETR","launch_vehicle":null,"mission":null,"orbit_class":"UNKNOWN","rcs_meters":null,"size_class":null,"mass_kg":null,"dimensions":null,"purposes":["comms"],"wikipedia_slug":null,"has_3d_model":false,"image_url":null,"decayed_at":null,"tle_current":{"epoch":"2026-09-20T03:11:04.568928Z","epoch_age_seconds":143730,"freshness":"FRESH","line1":"1 56381U 23061H   26263.13269177 -.00000060  00000+0  73351-5 0  9990","line2":"2 56381  43.0005 180.0884 0000844 241.2297 118.8470 15.27576100186489","mean_motion":15.275761,"eccentricity":8.44e-5,"inclination_deg":43.0005,"raan_deg":180.0884,"arg_perigee_deg":241.2297,"mean_anomaly_deg":118.847,"bstar":7.3351e-6,"rev_number":18648,"period_min":94.266989382722,"perigee_km":482.48168897539,"apogee_km":483.63985915965,"semimajor_km":6861.1977740675,"source":"CELESTRAK","updated_at":"2026-09-21T09:00:33.431361Z"}}}